When you browse on this site, cookies collect data to enhance your experience and personalize the content and advertising you see.
Visit our Privacy Policy to learn more. By continuing to use the site, you agree to this use of cookies and data.
  • En España
  • Lista de países
  • Para 7 días
  • Temperatura del agua
  • Mapa Satelital
  • El tiempo en el mapa
  • Informadores
  • user-avatar
    Iniciar sesión

    Tiempo cada hora Jerusalem

    Hoy, 21 Abril, Domingo

    Tiempo Temperatura Precipitaciones Viento Presión Humedad
    00:00 +8°C° 0.1 mm 4 mps 693 mmHg 78%
    01:00 +8°C° 0.1 mm 5 mps 692 mmHg 78%
    02:00 +8°C° 0.1 mm 5 mps 692 mmHg 77%
    03:00 +8°C° 0.1 mm 6 mps 692 mmHg 76%
    04:00 +8°C° 0.1 mm 6 mps 691 mmHg 74%
    05:00 +6°C° 0.1 mm 7 mps 691 mmHg 73%
    06:00 +7°C° 0.1 mm 8 mps 691 mmHg 68%
    07:00 +8°C° 0.1 mm 9 mps 692 mmHg 62%
    08:00 +8°C° 0.1 mm 11 mps 692 mmHg 57%
    09:00 +9°C° 0.4 mm 11 mps 692 mmHg 56%
    10:00 +9°C° 0.4 mm 10 mps 692 mmHg 55%
    11:00 +9°C° 0.4 mm 10 mps 692 mmHg 54%
    12:00 +9°C° 0 mm 10 mps 692 mmHg 49%
    13:00 +11°C° 0 mm 11 mps 693 mmHg 45%
    14:00 +11°C° 0 mm 11 mps 693 mmHg 40%
    15:00 +11°C° 0 mm 10 mps 693 mmHg 42%
    16:00 +9°C° 0 mm 10 mps 693 mmHg 44%
    17:00 +8°C° 0 mm 9 mps 693 mmHg 46%
    18:00 +9°C° 0 mm 8 mps 693 mmHg 50%
    19:00 +8°C° 0 mm 6 mps 694 mmHg 54%
    20:00 +7°C° 0 mm 5 mps 694 mmHg 58%
    21:00 +7°C° 0 mm 4 mps 694 mmHg 59%
    22:00 +7°C° 0 mm 4 mps 694 mmHg 61%
    23:00 +8°C° 0 mm 3 mps 694 mmHg 62%

    Mañana, 22 Abril, Lunes

    Tiempo Temperatura Precipitaciones Viento Presión Humedad
    00:00 +8°C° 0 mm 3 mps 694 mmHg 64%
    01:00 +7°C° 0 mm 3 mps 693 mmHg 66%
    02:00 +7°C° 0 mm 3 mps 693 mmHg 68%
    03:00 +7°C° 0 mm 3 mps 693 mmHg 69%
    04:00 +7°C° 0 mm 3 mps 693 mmHg 69%
    05:00 +7°C° 0 mm 3 mps 693 mmHg 70%
    06:00 +7°C° 0 mm 4 mps 693 mmHg 64%
    07:00 +8°C° 0 mm 5 mps 694 mmHg 59%
    08:00 +10°C° 0 mm 6 mps 694 mmHg 53%
    09:00 +10°C° 0 mm 6 mps 695 mmHg 52%
    10:00 +11°C° 0 mm 7 mps 695 mmHg 50%
    11:00 +12°C° 0 mm 7 mps 695 mmHg 49%
    12:00 +12°C° 0 mm 7 mps 695 mmHg 48%
    13:00 +14°C° 0 mm 7 mps 695 mmHg 48%
    14:00 +14°C° 0 mm 7 mps 695 mmHg 48%
    15:00 +12°C° 0 mm 7 mps 695 mmHg 50%
    16:00 +13°C° 0 mm 6 mps 695 mmHg 52%
    17:00 +11°C° 0 mm 6 mps 695 mmHg 53%
    18:00 +11°C° 0 mm 4 mps 695 mmHg 57%
    19:00 +11°C° 0 mm 3 mps 696 mmHg 61%
    20:00 +10°C° 0 mm 2 mps 696 mmHg 65%
    21:00 +10°C° 0 mm 2 mps 696 mmHg 66%
    22:00 +10°C° 0 mm 1 mps 696 mmHg 67%
    23:00 +10°C° 0 mm 1 mps 697 mmHg 68%

    Pasado mañana, 23 Abril, Martes

    Tiempo Temperatura Precipitaciones Viento Presión Humedad
    00:00 +10°C° 0 mm 1 mps 696 mmHg 69%
    01:00 +9°C° 0 mm 1 mps 696 mmHg 69%
    02:00 +9°C° 0 mm 1 mps 696 mmHg 69%
    03:00 +9°C° 0 mm 1 mps 696 mmHg 69%
    04:00 +8°C° 0 mm 1 mps 696 mmHg 69%
    05:00 +7°C° 0 mm 0 mps 696 mmHg 69%
    06:00 +10°C° 0 mm 1 mps 697 mmHg 63%
    07:00 +11°C° 0 mm 1 mps 698 mmHg 56%
    08:00 +13°C° 0 mm 1 mps 698 mmHg 49%
    09:00 +14°C° 0 mm 1 mps 699 mmHg 46%
    10:00 +15°C° 0 mm 1 mps 699 mmHg 43%
    11:00 +16°C° 0 mm 1 mps 699 mmHg 40%
    12:00 +17°C° 0 mm 2 mps 699 mmHg 40%
    13:00 +18°C° 0 mm 3 mps 699 mmHg 39%
    14:00 +19°C° 0 mm 3 mps 699 mmHg 39%
    15:00 +18°C° 0 mm 4 mps 699 mmHg 41%
    16:00 +17°C° 0 mm 4 mps 699 mmHg 44%
    17:00 +17°C° 0 mm 4 mps 698 mmHg 47%
    18:00 +15°C° 0 mm 4 mps 699 mmHg 49%
    19:00 +14°C° 0 mm 3 mps 699 mmHg 51%
    20:00 +13°C° 0 mm 3 mps 699 mmHg 54%
    21:00 +13°C° 0 mm 2 mps 699 mmHg 54%
    22:00 +13°C° 0 mm 2 mps 699 mmHg 54%
    23:00 +13°C° 0 mm 2 mps 699 mmHg 54%

    24 Abril, Miércoles

    Tiempo Temperatura Precipitaciones Viento Presión Humedad
    00:00 +12°C° 0 mm 2 mps 698 mmHg 55%
    01:00 +12°C° 0 mm 2 mps 698 mmHg 56%
    02:00 +10°C° 0 mm 2 mps 698 mmHg 57%
    03:00 +11°C° 0 mm 1 mps 698 mmHg 58%
    04:00 +11°C° 0 mm 1 mps 698 mmHg 58%
    05:00 +11°C° 0 mm 1 mps 698 mmHg 59%
    06:00 +13°C° 0 mm 1 mps 698 mmHg 52%
    07:00 +15°C° 0 mm 2 mps 699 mmHg 46%
    08:00 +17°C° 0 mm 2 mps 700 mmHg 40%
    09:00 +19°C° 0 mm 2 mps 700 mmHg 35%
    10:00 +20°C° 0 mm 2 mps 700 mmHg 30%
    11:00 +21°C° 0 mm 2 mps 700 mmHg 25%
    12:00 +23°C° 0 mm 2 mps 700 mmHg 24%
    13:00 +24°C° 0 mm 1 mps 699 mmHg 22%
    14:00 +25°C° 0 mm 1 mps 699 mmHg 21%
    15:00 +24°C° 0 mm 2 mps 699 mmHg 25%
    16:00 +22°C° 0 mm 3 mps 699 mmHg 29%
    17:00 +22°C° 0 mm 4 mps 698 mmHg 33%
    18:00 +20°C° 0 mm 4 mps 698 mmHg 38%
    19:00 +19°C° 0 mm 3 mps 698 mmHg 42%
    20:00 +18°C° 0 mm 2 mps 698 mmHg 47%
    21:00 +17°C° 0 mm 2 mps 698 mmHg 44%
    22:00 +17°C° 0 mm 2 mps 698 mmHg 42%
    23:00 +16°C° 0 mm 2 mps 698 mmHg 40%

    25 Abril, Jueves

    Tiempo Temperatura Precipitaciones Viento Presión Humedad
    00:00 +16°C° 0 mm 1 mps 697 mmHg 40%
    01:00 +15°C° 0 mm 1 mps 697 mmHg 41%
    02:00 +15°C° 0 mm 1 mps 696 mmHg 41%
    03:00 +14°C° 0 mm 1 mps 696 mmHg 42%
    04:00 +14°C° 0 mm 1 mps 696 mmHg 43%
    05:00 +14°C° 0 mm 1 mps 696 mmHg 43%
    06:00 +16°C° 0 mm 1 mps 697 mmHg 39%
    07:00 +18°C° 0 mm 1 mps 698 mmHg 34%
    08:00 +20°C° 0 mm 1 mps 698 mmHg 29%
    09:00 +22°C° 0 mm 1 mps 698 mmHg 28%
    10:00 +23°C° 0 mm 1 mps 698 mmHg 27%
    11:00 +24°C° 0 mm 2 mps 698 mmHg 25%
    12:00 +25°C° 0 mm 3 mps 698 mmHg 26%
    13:00 +25°C° 0 mm 4 mps 698 mmHg 26%
    14:00 +26°C° 0 mm 6 mps 697 mmHg 27%
    15:00 +24°C° 0 mm 6 mps 697 mmHg 28%
    16:00 +23°C° 0 mm 5 mps 697 mmHg 30%
    17:00 +22°C° 0 mm 5 mps 696 mmHg 32%
    18:00 +20°C° 0 mm 4 mps 696 mmHg 36%
    19:00 +19°C° 0 mm 3 mps 696 mmHg 40%
    20:00 +18°C° 0 mm 2 mps 696 mmHg 44%
    21:00 +17°C° 0 mm 2 mps 696 mmHg 47%
    22:00 +16°C° 0 mm 2 mps 696 mmHg 49%
    23:00 +16°C° 0 mm 2 mps 695 mmHg 52%

    26 Abril, Viernes

    Tiempo Temperatura Precipitaciones Viento Presión Humedad
    00:00 +15°C° 0 mm 2 mps 695 mmHg 55%
    01:00 +15°C° 0 mm 1 mps 695 mmHg 57%
    02:00 +14°C° 0 mm 1 mps 694 mmHg 60%
    03:00 +14°C° 0 mm 1 mps 694 mmHg 59%
    04:00 +14°C° 0 mm 1 mps 694 mmHg 58%
    05:00 +14°C° 0 mm 1 mps 694 mmHg 57%
    06:00 +16°C° 0 mm 1 mps 695 mmHg 50%
    07:00 +18°C° 0 mm 2 mps 695 mmHg 42%
    08:00 +20°C° 0 mm 2 mps 696 mmHg 34%
    09:00 +21°C° 0 mm 2 mps 696 mmHg 31%
    10:00 +23°C° 0 mm 2 mps 696 mmHg 28%
    11:00 +24°C° 0 mm 1 mps 696 mmHg 24%
    12:00 +25°C° 0 mm 2 mps 696 mmHg 23%
    13:00 +25°C° 0 mm 2 mps 696 mmHg 22%
    14:00 +26°C° 0 mm 2 mps 695 mmHg 21%
    15:00 +25°C° 0 mm 3 mps 695 mmHg 24%
    16:00 +25°C° 0 mm 4 mps 695 mmHg 27%
    17:00 +23°C° 0 mm 4 mps 695 mmHg 29%
    18:00 +22°C° 0 mm 4 mps 695 mmHg 33%
    19:00 +20°C° 0 mm 3 mps 695 mmHg 36%
    20:00 +19°C° 0 mm 2 mps 694 mmHg 40%
    21:00 +18°C° 0 mm 2 mps 694 mmHg 39%
    22:00 +18°C° 0 mm 2 mps 694 mmHg 37%
    23:00 +18°C° 0 mm 1 mps 694 mmHg 36%
    Mostrar más